Date String (YYYY-MM-DD hh:mm:ss) UTC,Instrument flags,Ambient pressure (hPa),Sample flow (lpm),Bypass flow (lpm),Sample temperature (°C),Ambient temperature (°C),ASC tube jacket temperature (°C),LED temperature (°C),Box temperature (°C),Sample RH (%),Span deviation,Mass concentration (μg/m³),Mass concentration (μg/m³),Mass concentration (μg/m³)
DateTimeUTC,F1_M11,P_M11,Q1_M11,Q2_M11,T1_M11,T2_M11,T3_M11,T4_M11,T5_M11,U1_M11,ZSPAN_M11,X0_M11,X2_M11,X1_M11
2022-01-02 23:00:00,,0829.0,5.00,0.00,29.0,28.2,00.0,37.9,30.7,07.0,0000.0,0002.92,0000.06,0000.01
2022-01-02 23:01:00,,0828.9,5.01,0.00,29.0,28.1,00.0,37.9,30.7,07.0,0000.0,0002.92,0000.06,0000.01
2022-01-02 23:02:00,,0828.9,4.99,0.00,29.0,28.1,00.0,37.9,30.7,07.0,0000.0,0002.89,0000.05,0000.01
2022-01-02 23:03:00,,0828.9,5.00,0.00,29.0,28.1,00.0,37.9,30.7,07.1,0000.0,0002.91,0000.04,0000.01
2022-01-02 23:04:00,,0828.9,4.99,0.00,29.0,28.1,00.0,37.9,30.7,07.1,0000.0,0001.88,0000.04,0000.01
2022-01-02 23:05:00,,0828.9,5.01,0.00,29.0,28.1,00.0,37.9,30.7,07.1,0000.0,0001.83,0000.04,0000.01
2022-01-02 23:06:00,,0828.9,5.00,0.00,29.0,28.1,00.0,37.9,30.7,07.1,0000.0,0002.53,0000.02,0000.01
2022-01-02 23:07:00,,0829.0,5.00,0.00,29.0,28.1,00.0,37.9,30.7,07.2,0000.0,0002.44,0000.02,0000.00
2022-01-02 23:08:00,,0828.9,4.99,0.00,29.0,28.1,00.0,37.9,30.7,07.3,0000.0,0004.06,0000.05,0000.01
2022-01-02 23:09:00,,0829.0,5.00,0.00,29.0,28.1,00.0,37.9,30.7,07.3,0000.0,0003.95,0000.06,0000.01
2022-01-02 23:10:00,,0829.0,5.01,0.00,28.9,28.1,00.0,37.9,30.7,07.1,0000.0,0003.07,0000.05,0000.01
2022-01-02 23:11:00,,0829.0,4.99,0.00,28.9,28.1,00.0,37.9,30.7,07.1,0000.0,0003.07,0000.05,0000.01
2022-01-02 23:12:00,,0829.0,4.99,0.00,28.9,28.1,00.0,37.9,30.7,07.1,0000.0,0003.07,0000.05,0000.01
2022-01-02 23:13:00,,0829.0,5.02,0.00,28.9,28.1,00.0,37.9,30.7,07.1,0000.0,0003.04,0000.05,0000.01
2022-01-02 23:14:00,,0829.0,4.98,0.00,28.9,28.1,00.0,37.9,30.7,07.2,0000.0,0002.90,0000.04,0000.01
2022-01-02 23:15:00,,0829.1,5.01,0.00,28.9,28.1,00.0,37.9,30.7,07.1,0000.0,0002.90,0000.04,0000.01
2022-01-02 23:16:00,,0829.0,4.99,0.00,28.9,28.1,00.0,37.9,30.7,06.9,0000.0,0002.90,0000.04,0000.01
2022-01-02 23:17:00,,0829.0,5.01,0.00,28.9,28.1,00.0,37.9,30.7,07.0,0000.0,0001.81,0000.04,0000.01
2022-01-02 23:18:00,,0829.0,4.99,0.00,28.9,28.1,00.0,37.9,30.7,07.1,0000.0,0001.62,0000.04,0000.01
2022-01-02 23:19:00,,0829.0,5.01,0.00,28.9,28.1,00.0,37.9,30.7,07.1,0000.0,0000.14,0000.02,0000.00
2022-01-02 23:20:00,,0829.0,5.00,0.00,28.9,28.1,00.0,37.9,30.7,07.1,0000.0,0000.19,0000.03,0000.00
2022-01-02 23:21:00,,0829.0,5.00,0.00,28.9,28.1,00.0,37.9,30.7,07.3,0000.0,0000.20,0000.03,0000.00
2022-01-02 23:22:00,,0829.0,5.00,0.00,28.9,28.1,00.0,37.8,30.6,07.3,0000.0,0000.20,0000.03,0000.00
2022-01-02 23:23:00,,0829.0,5.02,0.00,28.9,28.1,00.0,37.8,30.6,07.2,0000.0,0000.22,0000.05,0000.00
2022-01-02 23:24:00,,0828.9,5.00,0.00,28.9,28.1,00.0,37.8,30.6,07.1,0000.0,0000.26,0000.07,0000.01
2022-01-02 23:25:00,,0828.9,4.99,0.00,28.9,28.1,00.0,37.8,30.6,06.9,0000.0,0000.28,0000.07,0000.01
2022-01-02 23:26:00,,0828.9,5.00,0.00,28.9,28.1,00.0,37.8,30.6,06.8,0000.0,0000.28,0000.07,0000.01
2022-01-02 23:27:00,,0828.9,5.00,0.00,28.9,28.1,00.0,37.8,30.6,06.8,0000.0,0000.28,0000.07,0000.01
2022-01-02 23:28:00,,0828.9,5.00,0.00,28.9,28.1,00.0,37.8,30.6,06.9,0000.0,0000.28,0000.07,0000.01
2022-01-02 23:29:00,,0828.9,4.99,0.00,28.9,28.0,00.0,37.8,30.6,07.0,0000.0,0000.28,0000.07,0000.01
2022-01-02 23:30:00,,0828.9,5.02,0.00,28.8,28.0,00.0,37.8,30.6,07.3,0000.0,0000.17,0000.06,0000.01
2022-01-02 23:31:00,,0828.9,4.99,0.00,28.8,28.0,00.0,37.8,30.6,07.5,0000.0,0000.18,0000.05,0000.01
2022-01-02 23:32:00,,0828.9,4.99,0.00,28.8,28.0,00.0,37.8,30.6,06.9,0000.0,0000.24,0000.06,0000.01
2022-01-02 23:33:00,,0829.0,5.00,0.00,28.8,28.0,00.0,37.8,30.6,06.9,0000.0,0000.29,0000.06,0000.01
2022-01-02 23:34:00,,0828.9,5.00,0.00,28.8,28.0,00.0,37.8,30.5,07.2,0000.0,0000.39,0000.08,0000.01
2022-01-02 23:35:00,,0829.0,5.01,0.00,28.8,28.0,00.0,37.8,30.5,07.3,0000.0,0000.37,0000.07,0000.01
2022-01-02 23:36:00,,0829.0,4.99,0.00,28.8,28.0,00.0,37.8,30.5,06.9,0000.0,0000.35,0000.06,0000.01
2022-01-02 23:37:00,,0829.0,5.02,0.00,28.8,28.0,00.0,37.8,30.5,06.9,0000.0,0000.35,0000.06,0000.01
2022-01-02 23:38:00,,0829.0,4.98,0.00,28.8,28.0,00.0,37.8,30.5,07.0,0000.0,0000.41,0000.06,0000.01
2022-01-02 23:39:00,,0829.0,5.02,0.00,28.8,27.9,00.0,37.8,30.5,07.2,0000.0,0000.52,0000.07,0000.01
2022-01-02 23:40:00,,0829.0,4.99,0.00,28.8,27.9,00.0,37.7,30.5,07.6,0000.0,0000.52,0000.07,0000.01
2022-01-02 23:41:00,,0829.0,5.00,0.00,28.7,27.9,00.0,37.7,30.4,07.9,0000.0,0000.55,0000.09,0000.01
2022-01-02 23:42:00,,0829.0,5.01,0.00,28.7,27.9,00.0,37.7,30.4,07.6,0000.0,0000.89,0000.09,0000.01
2022-01-02 23:43:00,,0829.1,5.00,0.00,28.7,27.8,00.0,37.7,30.4,07.8,0000.0,0001.19,0000.09,0000.01
2022-01-02 23:44:00,,0829.1,5.00,0.00,28.7,27.8,00.0,37.7,30.3,08.1,0000.0,0001.21,0000.11,0000.01
2022-01-02 23:45:00,,0829.0,5.00,0.00,28.6,27.6,00.0,37.7,30.2,07.7,0000.0,0001.12,0000.09,0000.01
2022-01-02 23:46:00,,0829.0,5.00,0.00,28.6,27.6,00.0,37.7,30.2,07.4,0000.0,0001.13,0000.10,0000.01
2022-01-02 23:47:00,,0829.0,5.01,0.00,28.6,27.6,00.0,37.7,30.2,07.3,0000.0,0001.14,0000.10,0000.01
2022-01-02 23:48:00,,0829.0,4.98,0.00,28.6,27.6,00.0,37.6,30.2,07.2,0000.0,0001.16,0000.11,0000.01
2022-01-02 23:49:00,,0829.0,5.01,0.00,28.6,27.6,00.0,37.6,30.2,07.0,0000.0,0001.21,0000.12,0000.01
2022-01-02 23:50:00,,0829.0,5.00,0.00,28.5,27.6,00.0,37.6,30.2,07.0,0000.0,0001.08,0000.12,0000.01
2022-01-02 23:51:00,,0829.0,5.00,0.00,28.5,27.6,00.0,37.6,30.2,07.0,0000.0,0001.08,0000.12,0000.01
2022-01-02 23:52:00,,0829.0,4.99,0.00,28.5,27.6,00.0,37.6,30.1,07.0,0000.0,0001.05,0000.10,0000.01
2022-01-02 23:53:00,,0829.0,5.01,0.00,28.5,27.5,00.0,37.6,30.1,07.1,0000.0,0000.66,0000.09,0000.01
2022-01-02 23:54:00,,0829.0,4.99,0.00,28.4,27.5,00.0,37.5,30.1,07.1,0000.0,0000.27,0000.09,0000.01
2022-01-02 23:55:00,,0829.0,5.01,0.00,28.4,27.5,00.0,37.5,30.1,07.0,0000.0,0000.20,0000.06,0000.00
2022-01-02 23:56:00,,0829.0,5.00,0.00,28.4,27.5,00.0,37.5,30.0,06.9,0000.0,0000.18,0000.05,0000.00
2022-01-02 23:57:00,,0828.9,5.01,0.00,28.4,27.4,00.0,37.5,30.0,06.9,0000.0,0000.13,0000.03,0000.00
2022-01-02 23:58:00,,0828.9,5.01,0.00,28.4,27.4,00.0,37.5,29.9,06.9,0000.0,0000.14,0000.03,0000.00
2022-01-02 23:59:00,,0828.9,4.98,0.00,28.3,27.4,00.0,37.5,29.9,06.8,0000.0,0000.18,0000.03,0000.00
